When you browse on this site, cookies collect data to enhance your experience and personalize the content and advertising you see.
Visit our Privacy Policy to learn more. By continuing to use the site, you agree to this use of cookies and data.

Hourly Weather Tymoshivka

Today, 14 July, Tuesday

Time Temperature Precipitation Wind Pressure Humidity
00:00 +13°C° 0 mm 6 mps 741 mmHg 84%
01:00 +13°C° 0 mm 6 mps 741 mmHg 84%
02:00 +13°C° 0 mm 6 mps 741 mmHg 84%
03:00 +13°C° 0 mm 6 mps 741 mmHg 85%
04:00 +13°C° 0 mm 6 mps 741 mmHg 86%
05:00 +13°C° 0 mm 6 mps 741 mmHg 87%
06:00 +12°C° 0 mm 7 mps 741 mmHg 85%
07:00 +14°C° 0 mm 7 mps 741 mmHg 83%
08:00 +15°C° 0 mm 8 mps 741 mmHg 81%
09:00 +15°C° 0.1 mm 7 mps 741 mmHg 80%
10:00 +15°C° 0.1 mm 7 mps 741 mmHg 80%
11:00 +15°C° 0.1 mm 7 mps 741 mmHg 79%
12:00 +16°C° 0.2 mm 7 mps 741 mmHg 78%
13:00 +16°C° 0.2 mm 6 mps 741 mmHg 77%
14:00 +16°C° 0.2 mm 6 mps 741 mmHg 76%
15:00 +16°C° 0.2 mm 6 mps 741 mmHg 77%
16:00 +16°C° 0.2 mm 5 mps 741 mmHg 79%
17:00 +17°C° 0.2 mm 4 mps 741 mmHg 80%
18:00 +15°C° 0 mm 4 mps 741 mmHg 83%
19:00 +14°C° 0 mm 3 mps 741 mmHg 86%
20:00 +13°C° 0 mm 3 mps 742 mmHg 89%
21:00 +13°C° 0 mm 3 mps 742 mmHg 90%
22:00 +13°C° 0 mm 3 mps 742 mmHg 90%
23:00 +12°C° 0 mm 3 mps 742 mmHg 91%

Tomorrow, 15 July, Wednesday

Time Temperature Precipitation Wind Pressure Humidity
00:00 +12°C° 0 mm 3 mps 742 mmHg 91%
01:00 +12°C° 0 mm 3 mps 743 mmHg 92%
02:00 +11°C° 0 mm 4 mps 743 mmHg 92%
03:00 +11°C° 0 mm 3 mps 743 mmHg 91%
04:00 +11°C° 0 mm 3 mps 743 mmHg 90%
05:00 +11°C° 0 mm 3 mps 743 mmHg 90%
06:00 +13°C° 0 mm 4 mps 743 mmHg 84%
07:00 +15°C° 0 mm 4 mps 744 mmHg 78%
08:00 +18°C° 0 mm 4 mps 744 mmHg 72%
09:00 +20°C° 0 mm 4 mps 744 mmHg 67%
10:00 +21°C° 0 mm 4 mps 744 mmHg 62%
11:00 +22°C° 0 mm 4 mps 744 mmHg 57%
12:00 +22°C° 0.1 mm 5 mps 744 mmHg 56%
13:00 +23°C° 0.1 mm 5 mps 744 mmHg 54%
14:00 +23°C° 0.1 mm 5 mps 744 mmHg 53%
15:00 +23°C° 0.1 mm 5 mps 744 mmHg 54%
16:00 +23°C° 0.1 mm 4 mps 744 mmHg 56%
17:00 +23°C° 0.1 mm 4 mps 743 mmHg 58%
18:00 +21°C° 0 mm 4 mps 744 mmHg 65%
19:00 +19°C° 0 mm 3 mps 744 mmHg 71%
20:00 +18°C° 0 mm 2 mps 744 mmHg 78%
21:00 +17°C° 0 mm 2 mps 744 mmHg 81%
22:00 +16°C° 0 mm 2 mps 744 mmHg 83%
23:00 +15°C° 0 mm 2 mps 744 mmHg 86%

Day after tomorrow, 16 July, Thursday

Time Temperature Precipitation Wind Pressure Humidity
00:00 +15°C° 0 mm 2 mps 744 mmHg 87%
01:00 +15°C° 0 mm 2 mps 744 mmHg 88%
02:00 +14°C° 0 mm 2 mps 744 mmHg 89%
03:00 +14°C° 0 mm 2 mps 744 mmHg 89%
04:00 +14°C° 0 mm 2 mps 744 mmHg 89%
05:00 +14°C° 0 mm 2 mps 744 mmHg 89%
06:00 +16°C° 0 mm 2 mps 744 mmHg 83%
07:00 +18°C° 0 mm 2 mps 744 mmHg 76%
08:00 +20°C° 0 mm 2 mps 745 mmHg 69%
09:00 +21°C° 0 mm 2 mps 745 mmHg 63%
10:00 +23°C° 0 mm 2 mps 744 mmHg 58%
11:00 +24°C° 0 mm 2 mps 744 mmHg 52%
12:00 +25°C° 0 mm 2 mps 744 mmHg 50%
13:00 +26°C° 0 mm 1 mps 744 mmHg 47%
14:00 +26°C° 0 mm 1 mps 744 mmHg 45%
15:00 +26°C° 0 mm 1 mps 743 mmHg 45%
16:00 +26°C° 0 mm 1 mps 743 mmHg 46%
17:00 +26°C° 0 mm 1 mps 743 mmHg 46%
18:00 +24°C° 0 mm 1 mps 743 mmHg 51%
19:00 +23°C° 0 mm 1 mps 743 mmHg 56%
20:00 +21°C° 0 mm 1 mps 743 mmHg 61%
21:00 +20°C° 0 mm 1 mps 743 mmHg 63%
22:00 +20°C° 0 mm 1 mps 743 mmHg 66%
23:00 +18°C° 0 mm 2 mps 743 mmHg 68%

17 July, Friday

Time Temperature Precipitation Wind Pressure Humidity
00:00 +18°C° 0 mm 2 mps 743 mmHg 69%
01:00 +17°C° 0 mm 2 mps 743 mmHg 71%
02:00 +17°C° 0 mm 2 mps 743 mmHg 72%
03:00 +18°C° 0 mm 1 mps 743 mmHg 73%
04:00 +18°C° 0 mm 1 mps 743 mmHg 75%
05:00 +18°C° 0 mm 1 mps 743 mmHg 76%
06:00 +20°C° 0 mm 1 mps 743 mmHg 70%
07:00 +22°C° 0 mm 1 mps 743 mmHg 65%
08:00 +24°C° 0 mm 1 mps 743 mmHg 59%
09:00 +25°C° 0 mm 1 mps 743 mmHg 55%
10:00 +26°C° 0 mm 1 mps 744 mmHg 51%
11:00 +27°C° 0 mm 1 mps 744 mmHg 47%
12:00 +27°C° 0 mm 1 mps 743 mmHg 46%
13:00 +27°C° 0 mm 1 mps 743 mmHg 46%
14:00 +28°C° 0 mm 1 mps 743 mmHg 45%
15:00 +28°C° 0 mm 1 mps 743 mmHg 46%
16:00 +27°C° 0 mm 1 mps 743 mmHg 46%
17:00 +27°C° 0 mm 1 mps 743 mmHg 46%
18:00 +26°C° 0 mm 1 mps 743 mmHg 50%
19:00 +24°C° 0 mm 1 mps 743 mmHg 54%
20:00 +23°C° 0 mm 1 mps 743 mmHg 58%
21:00 +21°C° 0 mm 2 mps 743 mmHg 58%
22:00 +21°C° 0 mm 2 mps 744 mmHg 59%
23:00 +21°C° 0 mm 2 mps 744 mmHg 59%

18 July, Saturday

Time Temperature Precipitation Wind Pressure Humidity
00:00 +20°C° 0 mm 2 mps 744 mmHg 61%
01:00 +21°C° 0 mm 1 mps 744 mmHg 62%
02:00 +20°C° 0 mm 1 mps 744 mmHg 63%
03:00 +20°C° 0 mm 1 mps 744 mmHg 65%
04:00 +19°C° 0 mm 2 mps 744 mmHg 67%
05:00 +18°C° 0 mm 2 mps 744 mmHg 69%
06:00 +20°C° 0 mm 2 mps 744 mmHg 66%
07:00 +23°C° 0 mm 2 mps 744 mmHg 62%
08:00 +25°C° 0 mm 2 mps 745 mmHg 58%
09:00 +26°C° 0 mm 2 mps 745 mmHg 54%
10:00 +27°C° 0 mm 2 mps 745 mmHg 49%
11:00 +28°C° 0 mm 2 mps 745 mmHg 44%
12:00 +28°C° 0 mm 2 mps 744 mmHg 45%
13:00 +28°C° 0 mm 2 mps 744 mmHg 46%
14:00 +28°C° 0 mm 2 mps 744 mmHg 47%
15:00 +28°C° 0 mm 2 mps 744 mmHg 48%
16:00 +27°C° 0 mm 2 mps 744 mmHg 50%
17:00 +27°C° 0 mm 2 mps 743 mmHg 51%
18:00 +26°C° 0 mm 2 mps 743 mmHg 54%
19:00 +25°C° 0 mm 2 mps 744 mmHg 56%
20:00 +22°C° 0 mm 3 mps 744 mmHg 59%
21:00 +23°C° 0 mm 2 mps 744 mmHg 57%
22:00 +23°C° 0 mm 2 mps 744 mmHg 56%
23:00 +23°C° 0 mm 2 mps 744 mmHg 55%

19 July, Sunday

Time Temperature Precipitation Wind Pressure Humidity
00:00 +21°C° 0 mm 2 mps 744 mmHg 58%
01:00 +21°C° 0 mm 2 mps 744 mmHg 61%
02:00 +20°C° 0 mm 2 mps 744 mmHg 64%
03:00 +20°C° 0 mm 2 mps 744 mmHg 65%
04:00 +20°C° 0 mm 2 mps 744 mmHg 66%
05:00 +21°C° 0 mm 1 mps 744 mmHg 67%
06:00 +22°C° 0 mm 1 mps 744 mmHg 65%
07:00 +23°C° 0 mm 1 mps 743 mmHg 63%
08:00 +24°C° 0 mm 1 mps 743 mmHg 61%
09:00 +25°C° 0 mm 2 mps 743 mmHg 57%
10:00 +26°C° 0 mm 2 mps 743 mmHg 53%
11:00 +28°C° 0 mm 2 mps 743 mmHg 49%
12:00 +28°C° 0 mm 2 mps 743 mmHg 47%
13:00 +29°C° 0 mm 2 mps 743 mmHg 45%
14:00 +29°C° 0 mm 2 mps 742 mmHg 43%
15:00 +29°C° 0 mm 3 mps 742 mmHg 46%
16:00 +28°C° 0 mm 3 mps 742 mmHg 48%
17:00 +28°C° 0 mm 3 mps 742 mmHg 51%
18:00 +26°C° 0 mm 3 mps 742 mmHg 59%
19:00 +24°C° 0 mm 3 mps 742 mmHg 67%
20:00 +21°C° 0 mm 3 mps 741 mmHg 75%
21:00 +21°C° 0 mm 3 mps 741 mmHg 77%
22:00 +20°C° 0 mm 3 mps 741 mmHg 78%
23:00 +20°C° 0 mm 2 mps 741 mmHg 80%
Show more